GW5434 Weather Reports


Display with metric or nautical units.
time (UTC)temp
F
wind
direction
speed
MPH
gust
MPH
rain 1hr
in
rain 24hr
in
rain mn
in
humidity
%
barometer
mb
20260510230016 84 117 1.0 4.0 0.00 0.02 0.02 66 1015.6
20260510224515 85 345 2.0 3.0 0.00 0.02 0.02 63 1015.5
20260510223008 85 325 2.0 4.0 0.00 0.02 0.02 62 1015.6
20260510221515 84 7 1.0 4.0 0.00 0.02 0.02 64 1015.8
20260510220019 84 296 1.0 3.0 0.00 0.02 0.02 64 1015.8
20260510214524 84 19 1.0 5.0 0.00 0.02 0.02 66 1015.9
20260510213018 86 272 2.0 4.0 0.00 0.02 0.02 61 1015.9
20260510211508 84 264 0.0 3.0 0.00 0.02 0.02 64 1016.0
20260510210016 84 314 2.0 5.0 0.00 0.02 0.02 63 1016.0
20260510204528 83 25 2.0 3.0 0.00 0.02 0.02 67 1015.9
20260510203017 84 20 1.0 3.0 0.00 0.02 0.02 67 1015.9
20260510201518 83 356 1.0 4.0 0.00 0.02 0.02 67 1016.0
20260510200011 83 77 1.0 3.0 0.00 0.02 0.02 69 1016.0
20260510194516 83 104 2.0 6.0 0.00 0.02 0.02 65 1016.0
20260510193029 84 65 2.0 4.0 0.00 0.02 0.02 66 1016.0
20260510191526 85 240 3.0 5.0 0.00 0.02 0.02 62 1016.0
20260510190031 84 222 4.0 6.0 0.00 0.02 0.02 64 1016.1
20260510184513 83 107 0.0 8.0 0.00 0.02 0.02 64 1016.2
20260510183016 84 103 1.0 7.0 0.00 0.02 0.02 67 1016.4
20260510181522 81 142 2.0 6.0 0.00 0.02 0.02 69 1016.7
20260510180022 81 337 2.0 4.0 0.00 0.02 0.02 70 1017.0
20260510174523 80 2 1.0 4.0 0.00 0.02 0.02 71 1017.1
20260510173016 79 174 0.0 4.0 0.00 0.02 0.02 76 1017.3
20260510171526 78 16 2.0 4.0 0.00 0.02 0.02 76 1017.4
20260510170024 77 97 0.0 2.0 0.00 0.02 0.02 77 1017.6
20260510164524 75 302 0.0 0.0 0.02 0.02 0.02 79 1017.8
20260510163010 74 356 0.0 0.0 0.02 0.02 0.02 82 1018.0
20260510161517 74 3 0.0 0.0 0.02 0.02 0.02 81 1018.2
20260510160006 75 339 0.0 0.0 0.02 0.02 0.02 80 1018.2
20260510154504 74 232 0.0 0.0 0.00 0.00 0.00 81 1018.3
20260510153008 73 319 0.0 5.0 0.00 0.00 0.00 81 1018.3
20260510151519 73 347 0.0 4.0 0.00 0.00 0.00 82 1018.2
20260510150018 73 63 2.0 4.0 0.00 0.00 0.00 82 1018.2
20260510144510 72 237 1.0 4.0 0.00 0.00 0.00 84 1018.3
20260510143005 71 112 1.0 3.0 0.00 0.00 0.00 86 1018.0
20260510141513 71 87 1.0 3.0 0.00 0.00 0.00 84 1018.1
20260510140019 70 191 0.0 3.0 0.00 0.01 0.00 87 1017.9
20260510134518 69 16 0.0 4.0 0.00 0.04 0.00 88 1017.8
20260510133006 68 27 0.0 4.0 0.00 0.12 0.00 91 1017.6
20260510131505 67 347 1.0 3.0 0.00 0.19 0.00 92 1017.3
20260510130014 66 307 1.0 4.0 0.00 0.26 0.00 94 1017.3
20260510124518 66 317 0.0 2.0 0.00 0.31 0.00 95 1017.2
20260510123020 65 335 0.0 0.0 0.00 0.36 0.00 96 1016.8
20260510121506 65 351 0.0 1.0 0.00 0.40 0.00 96 1016.7
20260510120009 64 13 0.0 2.0 0.00 0.43 0.00 96 1016.5
20260510114521 64 254 0.0 0.0 0.00 0.56 0.00 96 1016.3
20260510113024 64 254 0.0 1.0 0.00 0.84 0.00 96 1016.0
20260510111522 64 253 0.0 1.0 0.00 1.11 0.00 96 1015.8
20260510110008 64 254 0.0 1.0 0.00 1.13 0.00 96 1015.5
20260510104512 64 354 0.0 0.0 0.00 1.14 0.00 96 1015.2
20260510103015 64 354 0.0 0.0 0.00 1.14 0.00 96 1015.1
20260510101519 64 354 0.0 1.0 0.00 1.14 0.00 96 1014.9
20260510100023 64 358 0.0 2.0 0.00 1.14 0.00 96 1014.9
20260510094506 63 133 0.0 0.0 0.00 1.14 0.00 96 1014.9
20260510093014 63 132 0.0 0.0 0.00 1.14 0.00 96 1014.6
20260510091518 63 132 0.0 0.0 0.00 1.14 0.00 96 1014.8
20260510090022 63 133 0.0 0.0 0.00 1.14 0.00 96 1014.7
20260510084524 63 133 0.0 0.0 0.00 1.14 0.00 96 1014.7
20260510083010 63 133 0.0 0.0 0.00 1.14 0.00 96 1014.7
20260510081514 63 133 0.0 0.0 0.00 1.14 0.00 96 1014.4
20260510080036 63 133 0.0 0.0 0.00 1.14 0.00 96 1014.1
20260510074526 63 146 0.0 0.0 0.00 1.14 0.00 96 1014.1
20260510073037 63 146 0.0 0.0 0.00 1.14 0.00 96 1014.1
20260510071515 63 146 0.0 0.0 0.00 1.14 0.00 96 1014.1
20260510070014 63 146 0.0 0.0 0.00 1.14 0.00 96 1013.9
20260510064518 62 146 0.0 0.0 0.00 1.14 0.00 95 1014.0
20260510063029 62 174 0.0 0.0 0.00 1.14 0.00 95 1013.9
20260510061527 63 174 0.0 1.0 0.00 1.14 0.00 95 1013.8
20260510060031 63 152 0.0 0.0 0.00 1.14 0.00 95 1013.7
20260510054519 63 152 0.0 0.0 0.00 1.14 0.00 95 1013.7
20260510053022 63 356 0.0 0.0 0.00 1.14 0.00 95 1013.9
20260510051526 63 18 0.0 0.0 0.00 1.14 0.00 95 1014.0
20260510050026 63 101 0.0 0.0 0.00 1.14 0.00 95 1014.0
20260510044518 63 101 0.0 0.0 0.00 1.14 1.14 95 1014.0
20260510043018 63 180 0.0 0.0 0.00 1.14 1.14 95 1014.2
20260510041526 63 180 0.0 0.0 0.00 1.14 1.14 94 1014.3
20260510040026 64 180 0.0 0.0 0.00 1.14 1.14 94 1014.4
20260510034528 64 180 0.0 0.0 0.00 1.14 1.14 94 1014.5
20260510033014 64 253 0.0 1.0 0.00 1.14 1.14 94 1014.6
20260510031525 64 55 0.0 2.0 0.00 1.14 1.14 94 1014.0
20260510030023 64 251 1.0 2.0 0.00 1.14 1.14 94 1014.6
20260510024528 64 91 0.0 1.0 0.00 1.14 1.14 94 1014.4
20260510023026 65 91 0.0 1.0 0.00 1.14 1.14 93 1014.3
20260510021544 65 136 0.0 1.0 0.00 1.14 1.14 93 1014.4
20260510020022 65 103 0.0 0.0 0.00 1.14 1.14 93 1014.2
20260510014533 65 103 0.0 2.0 0.00 1.14 1.14 93 1014.2
20260510013031 66 153 0.0 1.0 0.00 1.14 1.14 92 1014.0
20260510011517 66 131 0.0 1.0 0.00 1.14 1.14 92 1013.7
20260510010033 67 118 0.0 1.0 0.00 1.14 1.14 91 1013.6
20260510004522 67 116 0.0 1.0 0.00 1.14 1.14 91 1013.8
20260510003026 67 13 0.0 1.0 0.00 1.14 1.14 90 1013.6
20260510001527 67 176 1.0 2.0 0.00 1.14 1.14 90 1013.5
20260510000016 67 217 0.0 3.0 0.00 1.14 1.14 89 1013.2
20260509234523 67 206 1.0 2.0 0.00 1.14 1.14 89 1012.9
20260509233026 68 148 1.0 3.0 0.00 1.14 1.14 88 1013.1
20260509231523 68 124 0.0 1.0 0.00 1.14 1.14 87 1012.8